Location: Bauen
(46.9356°N, 8.5784°E)
Time: 19:53:59
(UTC+00:00)

ATLAS CENTAUR R/B - Pass Details

Date: 18 February 2020
Orbit: 466 x 681 km, 64.7° (Epoch: 28 March)

Event Time Altitude Azimuth Distance (km) Brightness Sun altitude
Exits shadow 05:22:29 14° 296° (WNW) 1,731 3.3 -11.5°
Maximum altitude 05:24:26 18° 327° (NNW) 1,515 3.2 -11.2°
Drops below altitude 10° 05:27:31 10° 11° (NNE) 1,942 4.2 -10.7°
Sets 05:30:19 0° 31° (NNE) 2,799 5.3 -10.2°
